TimeEST,TemperatureF,Dew PointF,Humidity,Sea Level PressureIn,VisibilityMPH,Wind Direction,Wind SpeedMPH,Gust SpeedMPH,PrecipitationIn,Events,Conditions,WindDirDegrees,DateUTC
12:52 AM,17.1,9.0,71,30.54,10.0,NW,11.5,-,N/A,,Partly Cloudy,310,2013-12-12 05:52:00
1:52 AM,14.0,8.1,77,30.54,7.0,WNW,8.1,-,N/A,,Scattered Clouds,300,2013-12-12 06:52:00
2:52 AM,14.0,8.1,77,30.55,10.0,WNW,6.9,-,N/A,,Overcast,300,2013-12-12 07:52:00
3:52 AM,12.9,7.0,77,30.54,8.0,NW,6.9,-,N/A,,Overcast,310,2013-12-12 08:52:00
4:52 AM,10.9,6.1,81,30.54,9.0,West,5.8,-,N/A,,Scattered Clouds,280,2013-12-12 09:52:00
5:52 AM,10.0,5.0,80,30.56,9.0,WNW,10.4,-,N/A,,Partly Cloudy,300,2013-12-12 10:52:00
6:52 AM,7.0,3.9,87,30.57,7.0,West,5.8,-,N/A,,Clear,270,2013-12-12 11:52:00
7:52 AM,7.0,3.9,87,30.58,5.0,West,3.5,-,N/A,,Partly Cloudy,270,2013-12-12 12:52:00
8:52 AM,8.1,6.1,92,30.57,6.0,Calm,Calm,-,N/A,,Partly Cloudy,0,2013-12-12 13:52:00
9:52 AM,10.9,6.1,81,30.57,7.0,SW,4.6,-,N/A,,Scattered Clouds,230,2013-12-12 14:52:00
10:52 AM,14.0,1.9,59,30.58,10.0,West,5.8,-,N/A,,Mostly Cloudy,260,2013-12-12 15:52:00
11:52 AM,17.1,-0.0,47,30.55,10.0,SW,6.9,-,N/A,,Mostly Cloudy,230,2013-12-12 16:52:00
12:52 PM,19.0,-0.9,42,30.52,10.0,SW,5.8,-,N/A,,Scattered Clouds,220,2013-12-12 17:52:00
1:52 PM,21.0,-0.9,38,30.51,10.0,WSW,10.4,-,N/A,,Scattered Clouds,240,2013-12-12 18:52:00
2:52 PM,23.0,1.9,40,30.48,10.0,WSW,10.4,-,N/A,,Partly Cloudy,240,2013-12-12 19:52:00
3:52 PM,24.1,5.0,44,30.46,10.0,SW,9.2,-,N/A,,Scattered Clouds,220,2013-12-12 20:52:00
4:52 PM,24.1,6.1,46,30.45,10.0,SSW,9.2,-,N/A,,Partly Cloudy,210,2013-12-12 21:52:00
5:52 PM,21.0,6.1,53,30.43,10.0,SSW,6.9,-,N/A,,Partly Cloudy,200,2013-12-12 22:52:00
6:52 PM,21.9,6.1,51,30.43,10.0,SW,10.4,-,N/A,,Clear,220,2013-12-12 23:52:00
7:52 PM,21.0,6.1,53,30.40,10.0,SSW,6.9,-,N/A,,Clear,210,2013-12-13 00:52:00
8:52 PM,21.0,6.1,53,30.39,10.0,SSW,5.8,-,N/A,,Partly Cloudy,210,2013-12-13 01:52:00
9:52 PM,21.9,8.1,55,30.37,10.0,SW,6.9,-,N/A,,Mostly Cloudy,220,2013-12-13 02:52:00
10:52 PM,21.0,8.1,57,30.37,10.0,SW,5.8,-,N/A,,Mostly Cloudy,220,2013-12-13 03:52:00
11:52 PM,21.0,9.0,60,30.37,10.0,SW,5.8,-,N/A,,Clear,230,2013-12-13 04:52:00